Zurück zum Katalog

NOAA 16 DEB

AktivPO
NORAD 42402·DEBRIS·🇺🇸 United States

Gestartet Sep 21, 2000 von Vandenberg Space Force Base

Loading…

Nächste Überflüge (nächste 24 Stunden)

TLE

AktuellSource: Space-Track

Epoche: Sep 14, 2026, 09:57 UTC

1 42402U 00055SW  26257.41519551  .00002626  00000-0  75468-3 0  9994
2 42402  99.0192 125.5935 0026881 224.4029 135.5006 14.45554425549256

Verfolge NOAA 16 DEB in Echtzeit mit AllMySat

Download on the App Store